Location: Cold Norton
(51.6667°N, 0.6667°E)
Time: 17:01:40
(UTC+00:00)

BlueWalker 3 - Pass Details

Date: 18 November 2025
Orbit: 455 x 462 km, 53.2° (Epoch: 12 December)

Event Time Altitude Azimuth Distance (km) Brightness Sun altitude
Rises 18:12:22 0° 193° (SSW) 2,478 5.7 -19.7°
Reaches altitude 10° 18:15:17 10° 168° (SSE) 1,609 4.4 -20.1°
Enters shadow 18:15:20 10° 167° (SSE) 1,598 4.4 -20.1°
